FW9881 Weather Reports


Display with metric or nautical units.
time (UTC)temp
F
wind
direction
speed
MPH
gust
MPH
rain 1hr
in
rain 24hr
in
rain mn
in
humidity
%
barometer
mb
20260503191725 49 278 9.0 18.0 0.00 0.04 0.01 41 1009.7
20260503190824 49 335 7.0 13.0 0.00 0.04 0.01 39 1009.7
20260503190724 49 318 4.0 7.0 0.00 0.04 0.01 40 1009.9
20260503185723 49 342 4.0 11.0 0.00 0.04 0.01 40 1009.5
20260503184725 49 347 5.0 10.0 0.00 0.04 0.01 39 1009.4
20260503182823 49 340 2.0 4.0 0.00 0.04 0.01 40 1009.6
20260503182725 49 347 3.0 8.0 0.00 0.04 0.01 40 1009.4
20260503181723 49 348 5.0 9.0 0.00 0.04 0.01 41 1009.7
20260503181623 49 5 4.0 8.0 0.00 0.04 0.01 41 1009.7
20260503180623 49 283 4.0 10.0 0.00 0.04 0.01 42 1009.8
20260503180524 49 320 4.0 7.0 0.00 0.04 0.01 41 1009.7
20260503175524 50 341 5.0 12.0 0.00 0.04 0.01 41 1009.6
20260503174526 50 346 5.0 8.0 0.00 0.04 0.01 42 1009.3
20260503173524 49 336 7.0 16.0 0.00 0.04 0.01 44 1009.3
20260503171526 51 286 9.0 14.0 0.00 0.04 0.01 45 1009.4
20260503150825 46 351 7.0 14.0 0.00 0.09 0.01 61 1009.7
20260503131126 41 342 4.0 7.0 0.00 0.09 0.01 80 1010.6
20260503130223 40 348 3.0 5.0 0.00 0.09 0.01 80 1010.6
20260503090225 38 316 4.0 6.0 0.00 0.16 0.00 89 1010.7
20260503080224 38 337 2.0 4.0 0.00 0.23 0.00 89 1011.5
20260503072224 38 343 2.0 3.0 0.00 0.24 0.00 90 1011.6
20260503071224 38 338 2.0 2.0 0.00 0.25 0.00 89 1011.7
20260503070225 38 336 2.0 3.0 0.00 0.25 0.00 91 1011.9
20260503060124 38 337 0.0 0.0 0.00 0.26 0.00 91 1012.5
20260503054124 38 360 0.0 0.0 0.00 0.26 0.00 91 1012.6
20260503053127 38 22 1.0 1.0 0.00 0.26 0.00 92 1012.7
20260503052223 38 22 2.0 2.0 0.00 0.26 0.00 91 1012.7
20260503051223 38 180 0.0 0.0 0.00 0.26 0.00 91 1013.1
20260503050225 38 180 0.0 0.0 0.00 0.26 0.00 91 1013.1
20260503045323 39 180 0.0 0.0 0.00 0.26 0.00 91 1013.1
20260503043325 39 22 0.0 0.0 0.00 0.26 0.00 90 1013.4
20260503042324 39 22 0.0 0.0 0.00 0.26 0.00 90 1013.4
20260503041324 40 22 0.0 0.0 0.00 0.26 0.00 88 1013.7
20260503041223 40 22 0.0 0.0 0.00 0.26 0.00 87 1013.8
20260503040239 40 337 0.0 0.0 0.00 0.26 0.00 88 1013.8
20260503040123 40 337 0.0 0.0 0.00 0.26 0.00 88 1013.7
20260503034129 40 180 2.0 3.0 0.00 0.26 0.26 86 1013.7
20260503033127 41 180 0.0 0.0 0.00 0.26 0.26 86 1013.8
20260503033029 41 180 0.0 0.0 0.00 0.26 0.26 86 1013.7
20260503032028 41 180 1.0 1.0 0.00 0.26 0.26 85 1013.9
20260503031929 41 180 1.0 1.0 0.00 0.26 0.26 85 1013.9
20260503024927 42 335 4.0 7.0 0.00 0.26 0.26 85 1013.8
20260503023928 42 327 3.0 5.0 0.00 0.26 0.26 86 1013.9
20260503022930 42 346 2.0 3.0 0.00 0.26 0.26 85 1013.9
20260503022827 42 350 3.0 4.0 0.00 0.26 0.26 86 1014.0
20260503022726 42 337 2.0 3.0 0.00 0.26 0.26 87 1014.0
20260503021628 42 320 3.0 5.0 0.00 0.26 0.26 88 1014.1
20260503021527 42 343 1.0 4.0 0.00 0.26 0.26 88 1014.1
20260503020527 42 337 1.0 2.0 0.00 0.26 0.26 89 1014.4
20260503015528 42 347 2.0 4.0 0.00 0.26 0.26 90 1014.2
20260503014528 42 348 0.0 2.0 0.00 0.26 0.26 90 1014.3
20260503013528 43 350 2.0 3.0 0.00 0.26 0.26 91 1014.1
20260503012527 43 180 1.0 2.0 0.00 0.26 0.26 90 1014.2
20260503012428 43 2 0.0 2.0 0.00 0.26 0.26 91 1014.2
20260503011428 43 157 0.0 0.0 0.00 0.26 0.26 91 1014.1
20260503011327 43 157 0.0 0.0 0.00 0.26 0.26 90 1014.2
20260503010327 43 157 0.0 0.0 0.00 0.26 0.26 91 1013.9
20260503005328 44 242 2.0 3.0 0.00 0.26 0.26 91 1013.8
20260503004343 44 112 0.0 0.0 0.00 0.26 0.26 91 1013.6
20260503002428 44 112 0.0 0.0 0.00 0.26 0.26 91 1013.6
20260503001527 44 112 0.0 0.0 0.00 0.26 0.26 90 1013.7
20260503000529 45 112 0.0 0.0 0.00 0.26 0.26 91 1013.5
20260502235626 45 180 0.0 0.0 0.00 0.26 0.26 91 1013.5
20260502233629 45 180 0.0 0.0 0.00 0.26 0.26 90 1013.3
20260502232727 45 180 0.0 0.0 0.00 0.26 0.26 91 1013.3
20260502231728 46 180 0.0 0.0 0.00 0.26 0.26 91 1013.3
20260502230727 46 180 0.0 0.0 0.00 0.26 0.26 90 1013.4
20260502225728 46 180 0.0 0.0 0.00 0.26 0.26 91 1013.3
20260502224729 46 180 0.0 0.0 0.00 0.26 0.26 91 1013.1
20260502223742 46 180 0.0 0.0 0.01 0.26 0.26 91 1012.9
20260502222830 46 26 2.0 3.0 0.03 0.26 0.26 90 1013.0
20260502221829 46 180 2.0 2.0 0.03 0.26 0.26 90 1013.0
20260502220927 46 28 2.0 4.0 0.03 0.26 0.26 90 1012.9
20260502220827 46 71 3.0 4.0 0.03 0.26 0.26 89 1012.8
20260502215828 46 22 2.0 2.0 0.03 0.26 0.26 89 1012.9
20260502214828 46 360 1.0 2.0 0.03 0.26 0.26 88 1012.9
20260502212927 47 337 1.0 2.0 0.00 0.23 0.23 88 1012.8
20260502212826 47 37 0.0 2.0 0.00 0.23 0.23 87 1012.8
20260502211845 47 180 4.0 6.0 0.00 0.23 0.23 86 1012.7
20260502204846 49 337 1.0 2.0 0.00 0.23 0.23 81 1012.8
20260502204726 49 12 1.0 2.0 0.00 0.23 0.23 80 1012.7
20260502203728 50 116 2.0 3.0 0.00 0.23 0.23 77 1012.8
20260502202730 50 149 0.0 2.0 0.00 0.23 0.23 76 1012.7
20260502201729 51 339 0.0 2.0 0.00 0.23 0.23 76 1012.6
20260502200826 52 306 1.0 1.0 0.00 0.23 0.23 74 1012.6
20260502195827 52 153 0.0 2.0 0.00 0.23 0.23 74 1012.8
20260502194926 52 234 3.0 6.0 0.00 0.23 0.23 72 1012.5
20260502194828 52 240 2.0 4.0 0.00 0.23 0.23 73 1012.5
20260502192844 53 127 2.0 3.0 0.00 0.23 0.23 69 1012.7